Temp
-4 -4 -4 -4 -4 -4 -5 -5 -5 -5 -5 -5 -5 -5 -5 -5 -5 -5 -5 -5 -5 -5 -5 -5 -5 -5 -5 -5 -5 -5 -5 -5 -5 -5 -5 -5 -5 -6 -6 -5 -5 -5 -5 -5 -5 -5 -6 -6 -6 -6 -6 -6 -6 -6 -6 -6 -6 -6 -6 -6 -6 -6 -6 -6 -6 -6 -6 -6 -6
-3 -4 -4 -4 -4 -4 -4 -5 -5 -5 -5 -5 -5 -5 -5 -5 -5 -5 -5 -5 -5 -5 -5 -5 -5 -5 -5 -5 -5 -5 -5 -5 -5 -5 -5 -5 -6 -6 -6 -6 -6 -5 -5 -6 -6 -6 -6 -6 -6 -6 -6 -6 -6 -6 -6 -6 -6 -6 -6 -6 -6 -6 -6 -6 -6 -6 -6 -6 -6
-4 -4 -4 -4 -4 -4 -4 -5 -5 -5 -5 -5 -5 -5 -5 -5 -5 -5 -5 -5 -5 -5 -5 -5 -5 -5 -5 -5 -5 -5 -5 -5 -5 -5 -5 -6 -6 -6 -6 -6 -6 -6 -6 -6 -6 -6 -6 -6 -6 -6 -6 -6 -6 -6 -6 -6 -6 -6 -6 -6 -6 -6 -7 -6 -6 -6 -6 -6 -6
-4 -4 -4 -4 -4 -4 -5 -5 -5 -5 -5 -5 -5 -5 -5 -5 -5 -5 -5 -5 -5 -5 -5 -5 -5 -5 -5 -5 -5 -5 -5 -5 -5 -5 -6 -6 -6 -6 -6 -6 -6 -6 -6 -6 -6 -6 -6 -6 -6 -6 -6 -6 -6 -6 -6 -6 -6 -6 -6 -6 -7 -7 -7 -7 -6 -6 -6 -6 -6
-4 -4 -4 -4 -4 -4 -5 -5 -5 -5 -5 -5 -5 -5 -5 -5 -5 -5 -5 -5 -5 -5 -5 -5 -5 -5 -5 -5 -5 -5 -5 -5 -5 -6 -6 -6 -6 -6 -6 -6 -6 -6 -6 -6 -6 -6 -6 -6 -7 -7 -7 -6 -6 -6 -6 -6 -6 -6 -6 -7 -7 -7 -7 -7 -7 -7 -7 -7 -7
-4 -4 -4 -4 -4 -4 -5 -5 -5 -5 -5 -5 -5 -5 -5 -5 -5 -5 -5 -5 -5 -5 -5 -5 -5 -5 -5 -5 -5 -5 -5 -5 -6 -6 -6 -6 -6 -6 -6 -6 -6 -6 -6 -6 -6 -6 -6 -7 -7 -7 -7 -6 -6 -6 -6 -6 -6 -6 -6 -7 -7 -7 -7 -7 -7 -7 -7 -7 -7
-4 -4 -4 -4 -4 -4 -5 -5 -5 -5 -5 -5 -5 -5 -5 -5 -5 -5 -5 -5 -5 -5 -5 -5 -5 -5 -5 -5 -5 -5 -5 -6 -6 -6 -6 -6 -6 -6 -6 -6 -6 -6 -6 -6 -6 -6 -6 -7 -7 -7 -7 -7 -7 -6 -6 -6 -6 -6 -7 -7 -7 -7 -7 -7 -7 -7 -7 -7 -7
-4 -4 -4 -4 -4 -5 -5 -5 -5 -5 -5 -5 -5 -5 -5 -5 -5 -5 -5 -5 -5 -5 -5 -5 -5 -5 -5 -5 -5 -5 -6 -6 -6 -6 -6 -6 -6 -6 -6 -6 -6 -6 -6 -6 -6 -6 -7 -7 -7 -7 -7 -7 -7 -7 -7 -7 -7 -7 -7 -7 -7 -7 -7 -7 -7 -7 -7 -7 -7
-4 -4 -4 -4 -4 -5 -5 -5 -5 -5 -5 -5 -5 -5 -5 -5 -5 -5 -5 -5 -5 -5 -5 -5 -5 -5 -5 -5 -5 -6 -6 -6 -6 -6 -6 -6 -6 -6 -6 -6 -6 -6 -6 -6 -6 -6 -7 -7 -7 -7 -7 -7 -7 -7 -7 -7 -7 -7 -7 -7 -7 -7 -7 -7 -7 -7 -7 -7 -7
-4 -4 -4 -4 -5 -5 -5 -5 -5 -5 -5 -5 -5 -5 -5 -5 -5 -5 -5 -5 -5 -5 -5 -5 -5 -5 -5 -6 -6 -6 -6 -6 -6 -6 -6 -6 -6 -6 -6 -6 -6 -6 -6 -6 -6 -6 -7 -7 -7 -7 -7 -7 -7 -7 -7 -7 -7 -7 -7 -7 -7 -7 -7 -7 -7 -7 -7 -7 -7
-4 -4 -4 -4 -5 -5 -5 -5 -5 -5 -5 -5 -5 -5 -5 -5 -5 -5 -5 -5 -5 -5 -5 -5 -5 -6 -6 -6 -6 -6 -6 -6 -6 -6 -6 -6 -6 -6 -6 -6 -6 -6 -6 -6 -6 -6 -7 -7 -7 -7 -7 -7 -7 -7 -7 -7 -7 -7 -7 -7 -7 -7 -7 -7 -7 -7 -7 -7 -7
-4 -4 -4 -4 -5 -5 -5 -5 -5 -5 -5 -5 -5 -5 -5 -5 -5 -5 -5 -5 -5 -5 -5 -5 -6 -6 -6 -6 -6 -6 -6 -6 -6 -6 -6 -6 -6 -6 -6 -6 -6 -6 -6 -6 -6 -7 -7 -7 -7 -7 -7 -7 -7 -7 -7 -7 -7 -7 -7 -7 -7 -7 -7 -7 -7 -7 -7 -7 -7
-4 -4 -4 -4 -5 -5 -5 -5 -5 -5 -5 -5 -5 -5 -5 -5 -5 -5 -5 -5 -5 -5 -6 -6 -6 -6 -6 -6 -6 -6 -6 -6 -6 -6 -6 -6 -6 -6 -6 -6 -7 -7 -7 -7 -7 -7 -7 -7 -7 -7 -7 -7 -7 -7 -7 -7 -7 -7 -7 -7 -7 -7 -7 -7 -7 -7 -7 -7 -7
-4 -4 -4 -4 -5 -5 -5 -5 -5 -5 -5 -5 -5 -5 -5 -5 -5 -5 -5 -5 -6 -6 -6 -6 -6 -6 -6 -6 -6 -6 -6 -6 -6 -6 -6 -6 -6 -6 -7 -7 -7 -7 -7 -7 -7 -7 -7 -7 -7 -7 -7 -7 -7 -7 -7 -7 -7 -7 -7 -7 -7 -7 -7 -7 -7 -7 -7 -7 -7
-4 -4 -4 -4 -5 -5 -5 -5 -5 -5 -5 -5 -5 -5 -5 -5 -5 -6 -6 -6 -6 -6 -6 -6 -6 -6 -6 -6 -6 -6 -6 -6 -6 -6 -6 -6 -6 -6 -7 -7 -7 -7 -7 -7 -7 -7 -7 -7 -7 -7 -7 -7 -7 -7 -7 -7 -7 -7 -7 -7 -7 -7 -7 -7 -7 -7 -7 -7 -7
-4 -4 -4 -4 -4 -5 -5 -5 -5 -5 -5 -5 -5 -5 -5 -6 -6 -6 -6 -6 -6 -6 -6 -6 -6 -6 -6 -6 -7 -7 -7 -6 -6 -6 -6 -6 -6 -7 -7 -7 -7 -7 -7 -7 -7 -7 -7 -7 -7 -7 -7 -7 -7 -7 -7 -7 -7 -7 -7 -7 -7 -7 -7 -7 -7 -7 -7 -7 -7
-4 -4 -4 -4 -5 -5 -5 -5 -5 -5 -5 -5 -5 -5 -6 -6 -6 -6 -6 -6 -6 -6 -6 -6 -6 -6 -6 -6 -7 -7 -7 -7 -7 -6 -6 -6 -7 -7 -7 -7 -7 -7 -7 -7 -7 -7 -7 -7 -7 -7 -7 -7 -7 -7 -7 -7 -7 -7 -7 -7 -7 -7 -7 -7 -7 -7 -7 -7 -7
-4 -4 -4 -4 -5 -5 -5 -5 -5 -5 -5 -5 -5 -6 -6 -6 -6 -6 -6 -6 -6 -6 -6 -6 -6 -6 -6 -6 -7 -7 -7 -7 -7 -7 -7 -7 -7 -7 -7 -7 -7 -7 -7 -7 -7 -7 -7 -7 -7 -7 -7 -7 -7 -7 -7 -6 -6 -6 -6 -7 -7 -7 -7 -7 -7 -7 -7 -7 -7
-4 -4 -4 -5 -5 -5 -5 -5 -5 -5 -5 -5 -5 -6 -6 -6 -6 -6 -6 -6 -6 -6 -6 -6 -6 -6 -6 -6 -6 -7 -7 -7 -7 -7 -7 -7 -7 -7 -7 -7 -7 -7 -7 -7 -7 -7 -7 -7 -7 -7 -7 -7 -7 -6 -6 -6 -6 -6 -6 -6 -6 -7 -7 -7 -7 -6 -6 -7 -7
-4 -4 -4 -5 -5 -5 -5 -5 -5 -5 -5 -5 -5 -6 -6 -6 -6 -6 -6 -6 -6 -6 -6 -6 -6 -6 -6 -6 -6 -6 -7 -7 -7 -7 -7 -7 -7 -7 -6 -6 -6 -6 -6 -6 -7 -7 -7 -7 -7 -7 -7 -7 -6 -6 -6 -6 -6 -6 -6 -6 -6 -7 -7 -6 -6 -6 -7 -7 -7
-4 -4 -4 -4 -5 -5 -5 -5 -5 -5 -5 -5 -5 -5 -5 -5 -5 -6 -6 -6 -6 -6 -6 -6 -6 -6 -6 -6 -6 -6 -6 -6 -6 -7 -7 -6 -6 -6 -6 -6 -6 -6 -6 -6 -7 -7 -7 -7 -7 -7 -6 -6 -6 -6 -6 -6 -6 -6 -6 -6 -6 -6 -6 -6 -6 -7 -7 -7 -6
-4 -4 -4 -4 -4 -5 -5 -5 -5 -5 -5 -5 -5 -5 -5 -5 -5 -5 -5 -5 -6 -6 -6 -6 -6 -6 -6 -6 -6 -6 -6 -6 -6 -6 -6 -6 -6 -6 -6 -6 -6 -6 -6 -6 -6 -7 -7 -7 -7 -6 -6 -6 -6 -6 -5 -5 -5 -5 -6 -6 -6 -6 -6 -6 -6 -7 -7 -7 -6
-4 -4 -4 -4 -4 -4 -5 -5 -5 -5 -5 -5 -5 -5 -5 -5 -5 -5 -5 -5 -5 -5 -6 -6 -6 -6 -6 -6 -6 -6 -6 -6 -6 -6 -6 -6 -6 -6 -6 -6 -6 -6 -6 -6 -6 -7 -7 -6 -6 -6 -6 -5 -5 -5 -5 -5 -5 -5 -5 -6 -6 -6 -6 -6 -7 -7 -7 -6 -6
-4 -4 -4 -4 -4 -4 -5 -5 -5 -5 -5 -5 -5 -5 -5 -5 -5 -5 -5 -5 -5 -5 -5 -5 -5 -6 -6 -6 -6 -6 -6 -6 -6 -6 -6 -6 -6 -6 -6 -6 -6 -6 -6 -6 -6 -6 -6 -6 -6 -5 -5 -5 -5 -5 -4 -4 -4 -5 -5 -6 -6 -6 -6 -6 -6 -6 -6 -6 -6
-4 -4 -4 -4 -4 -5 -5 -5 -5 -5 -5 -5 -5 -5 -5 -5 -5 -5 -5 -5 -5 -5 -5 -5 -5 -5 -5 -5 -5 -6 -6 -6 -6 -6 -6 -6 -6 -6 -6 -6 -6 -6 -6 -6 -6 -6 -6 -5 -5 -5 -4 -4 -4 -4 -4 -4 -4 -4 -5 -6 -6 -6 -6 -6 -6 -6 -6 -5 -5
-4 -4 -4 -4 -5 -5 -5 -5 -5 -5 -5 -5 -5 -5 -5 -5 -5 -5 -5 -5 -5 -5 -5 -5 -5 -5 -5 -5 -5 -5 -5 -5 -5 -5 -5 -5 -5 -5 -6 -6 -6 -6 -6 -6 -6 -6 -5 -5 -4 -4 -4 -4 -4 -4 -4 -4 -4 -5 -5 -6 -6 -6 -6 -6 -6 -6 -5 -5 -5
-4 -4 -5 -5 -5 -5 -5 -5 -5 -5 -5 -5 -5 -5 -5 -5 -5 -5 -5 -5 -5 -5 -5 -5 -5 -5 -5 -5 -5 -5 -5 -5 -5 -5 -5 -5 -5 -5 -5 -6 -6 -6 -6 -6 -6 -5 -5 -4 -4 -4 -4 -4 -3 -3 -3 -3 -4 -4 -5 -6 -6 -6 -6 -6 -6 -6 -5 -5 -5
-4 -5 -5 -5 -5 -5 -5 -5 -5 -5 -5 -5 -5 -5 -5 -5 -5 -5 -5 -5 -5 -5 -5 -5 -5 -5 -5 -5 -5 -5 -5 -5 -5 -5 -5 -5 -5 -5 -5 -5 -5 -6 -6 -6 -5 -5 -4 -4 -4 -3 -3 -3 -3 -3 -3 -3 -4 -4 -5 -5 -6 -6 -6 -6 -6 -6 -5 -5 -5
-5 -5 -5 -5 -4 -4 -4 -5 -5 -5 -5 -5 -5 -5 -5 -5 -5 -5 -5 -5 -5 -5 -5 -5 -5 -5 -5 -5 -5 -5 -5 -5 -5 -5 -5 -5 -5 -5 -5 -5 -5 -5 -5 -5 -5 -4 -4 -4 -3 -3 -3 -3 -3 -3 -3 -3 -4 -4 -5 -5 -5 -6 -6 -6 -6 -5 -5 -5 -5
-4 -4 -4 -4 -4 -4 -4 -4 -5 -5 -5 -5 -5 -5 -5 -5 -5 -5 -5 -5 -5 -5 -5 -5 -5 -5 -5 -5 -5 -5 -5 -5 -5 -5 -5 -5 -5 -5 -5 -5 -5 -5 -5 -5 -5 -4 -4 -3 -3 -3 -2 -2 -3 -3 -3 -3 -4 -4 -5 -5 -5 -6 -6 -6 -6 -5 -5 -5 -5
-4 -4 -4 -4 -4 -4 -4 -4 -5 -5 -5 -5 -5 -5 -5 -5 -5 -5 -5 -5 -5 -5 -5 -4 -4 -4 -4 -4 -4 -5 -5 -5 -5 -5 -5 -5 -5 -5 -5 -5 -5 -5 -5 -5 -5 -4 -4 -3 -3 -2 -2 -2 -2 -3 -3 -3 -4 -4 -4 -5 -5 -5 -5 -5 -5 -5 -5 -5 -5
-4 -4 -4 -4 -4 -4 -4 -4 -5 -5 -5 -5 -5 -5 -5 -5 -5 -5 -5 -5 -5 -5 -4 -4 -4 -4 -4 -4 -4 -4 -5 -5 -5 -5 -5 -5 -5 -5 -5 -5 -5 -5 -5 -5 -4 -4 -3 -3 -2 -2 -2 -2 -2 -2 -3 -3 -3 -4 -4 -5 -5 -5 -5 -5 -5 -5 -5 -5 -5
-4 -4 -4 -4 -4 -4 -4 -4 -5 -5 -5 -5 -5 -5 -5 -5 -5 -5 -5 -5 -4 -4 -4 -4 -4 -4 -4 -4 -4 -4 -4 -5 -5 -5 -5 -5 -5 -5 -5 -5 -5 -5 -5 -4 -4 -3 -3 -3 -2 -2 -3 -2 -2 -3 -3 -3 -3 -4 -4 -5 -5 -5 -5 -5 -5 -5 -5 -5 -5
-4 -4 -4 -4 -4 -4 -4 -4 -5 -5 -5 -5 -5 -5 -5 -5 -5 -5 -5 -4 -4 -4 -4 -4 -4 -4 -4 -4 -4 -4 -4 -4 -5 -5 -5 -5 -5 -5 -5 -5 -5 -4 -4 -4 -4 -3 -3 -3 -3 -3 -3 -2 -3 -3 -3 -3 -3 -4 -4 -5 -5 -5 -5 -5 -5 -5 -5 -5 -5
-4 -4 -4 -4 -4 -4 -4 -5 -5 -5 -5 -5 -5 -5 -5 -5 -5 -5 -5 -4 -4 -4 -4 -4 -4 -4 -4 -4 -4 -4 -4 -4 -5 -5 -5 -5 -5 -5 -5 -5 -4 -4 -4 -4 -4 -3 -3 -3 -3 -3 -3 -3 -3 -3 -3 -3 -4 -4 -5 -5 -5 -5 -5 -5 -5 -5 -5 -4 -5
-3 -4 -4 -4 -4 -4 -5 -5 -5 -5 -5 -5 -5 -5 -5 -5 -5 -5 -4 -4 -4 -4 -4 -4 -4 -4 -4 -4 -4 -4 -4 -4 -4 -4 -4 -4 -5 -5 -5 -4 -4 -4 -4 -4 -4 -3 -3 -3 -3 -3 -3 -3 -3 -3 -3 -4 -4 -4 -5 -5 -5 -5 -5 -5 -5 -5 -4 -4 -4
-3 -4 -4 -4 -4 -4 -5 -5 -5 -5 -5 -5 -5 -5 -5 -5 -5 -5 -4 -4 -4 -4 -4 -4 -4 -4 -4 -4 -4 -4 -4 -4 -4 -4 -4 -4 -4 -4 -4 -4 -4 -4 -4 -4 -3 -3 -3 -2 -3 -2 -3 -3 -3 -3 -4 -4 -4 -4 -4 -5 -5 -5 -5 -5 -5 -4 -4 -4 -4
-3 -3 -4 -4 -4 -4 -4 -5 -5 -5 -5 -5 -5 -5 -5 -5 -5 -5 -4 -4 -4 -4 -4 -4 -4 -4 -4 -4 -4 -4 -4 -4 -4 -4 -4 -4 -4 -4 -4 -4 -4 -4 -4 -3 -3 -3 -2 -2 -2 -2 -2 -3 -3 -3 -4 -4 -4 -4 -4 -4 -5 -5 -4 -4 -4 -4 -4 -4 -5
-3 -3 -4 -4 -4 -4 -4 -5 -5 -5 -5 -5 -5 -5 -5 -5 -5 -5 -5 -4 -4 -4 -4 -4 -4 -4 -4 -4 -4 -4 -4 -4 -4 -4 -4 -4 -4 -4 -4 -4 -4 -3 -3 -3 -3 -2 -2 -2 -2 -2 -2 -3 -3 -3 -4 -4 -4 -4 -4 -4 -4 -4 -4 -4 -4 -4 -4 -5 -5
-3 -3 -3 -4 -4 -4 -4 -5 -5 -5 -5 -5 -5 -5 -5 -5 -5 -5 -5 -4 -4 -4 -4 -4 -4 -4 -4 -4 -4 -4 -4 -4 -4 -4 -4 -4 -4 -4 -4 -4 -3 -3 -3 -3 -3 -2 -2 -2 -2 -2 -2 -3 -3 -3 -4 -4 -4 -4 -4 -4 -4 -4 -4 -4 -4 -4 -5 -5 -5
-3 -3 -3 -4 -4 -4 -5 -5 -5 -5 -5 -5 -5 -5 -5 -5 -5 -5 -5 -4 -4 -4 -4 -4 -4 -4 -4 -4 -4 -4 -4 -4 -4 -4 -4 -4 -4 -4 -4 -3 -3 -3 -3 -3 -2 -2 -2 -2 -2 -2 -2 -2 -3 -3 -4 -4 -4 -4 -4 -4 -4 -4 -5 -5 -5 -5 -5 -5 -5
Height
866 865 865 865 865 864 864 864 864 863 863 863 862 862 861 860 860 859 858 858 857 856 855 854 854 853 852 851 850 849 848 847 846 845 844 844 842 841 840 839 838 837 836 835 834 832 831 829 828 827 825 824 822 821 819 818 817 815 814 812 811 809 808 806 804 803 801 799 798
865 864 864 864 864 864 864 863 863 862 862 862 861 861 860 859 859 858 857 856 856 855 854 853 853 852 851 850 849 849 847 846 845 844 843 842 841 840 839 838 837 836 835 834 833 831 830 829 827 826 824 822 821 819 818 817 815 814 813 811 810 809 807 805 804 802 800 799 797
864 864 864 863 863 863 862 862 862 862 861 861 860 860 859 859 858 857 856 855 855 854 853 852 852 851 850 849 848 847 846 845 844 843 842 841 840 839 838 837 836 835 834 833 831 830 829 828 826 824 823 821 820 818 817 815 814 813 812 810 809 808 806 804 803 801 799 798 797
863 863 862 862 862 862 861 861 861 860 860 860 859 859 858 858 857 856 855 854 854 853 852 852 851 850 849 848 847 846 845 844 843 842 841 840 839 838 837 836 835 834 833 832 830 829 828 826 825 823 822 820 819 817 816 814 813 812 811 809 808 807 805 804 802 801 799 797 796
862 861 861 861 861 861 860 860 860 859 859 859 859 858 857 857 856 855 854 854 853 852 851 851 850 849 848 847 846 845 844 843 842 841 840 839 838 837 836 835 834 833 832 830 829 828 827 825 824 822 820 819 818 816 815 814 812 811 809 808 807 806 804 803 802 800 799 797 795
860 860 860 860 860 859 859 859 859 859 858 858 857 857 856 855 855 854 854 853 852 851 850 849 849 848 847 846 845 844 843 842 841 840 839 838 836 835 835 834 833 832 830 829 828 827 825 824 823 821 819 818 817 815 814 813 812 810 809 807 806 804 803 802 801 799 798 796 795
859 859 859 859 859 858 858 858 858 857 857 857 856 856 855 854 854 853 853 852 851 850 849 848 848 847 846 845 844 843 842 841 839 839 838 836 835 834 834 833 832 830 829 828 827 826 824 823 822 820 819 817 815 814 813 812 810 809 807 806 804 803 802 801 799 798 797 795 794
858 858 858 858 857 857 857 857 856 856 856 856 855 854 854 854 853 852 851 851 850 849 848 847 846 845 845 844 843 842 840 839 838 837 836 835 834 833 832 831 830 829 828 827 826 824 823 822 821 819 818 816 814 813 811 810 809 808 806 805 803 802 800 799 798 797 795 794 792
857 857 856 856 856 856 856 855 855 855 855 854 854 854 853 853 852 851 850 849 849 848 847 846 845 844 844 843 842 840 839 838 837 836 835 834 833 832 831 830 829 828 827 826 825 824 822 821 820 818 817 815 814 812 810 809 808 806 805 804 802 800 799 798 796 795 794 793 791
855 855 855 855 855 855 855 854 854 854 854 853 853 853 852 852 851 850 849 849 848 847 846 845 844 843 842 841 840 839 838 837 836 835 834 833 832 831 830 829 828 827 826 824 824 822 821 820 819 817 815 814 813 811 809 808 806 805 804 802 800 799 797 796 795 794 793 791 790
854 854 854 854 854 854 854 854 853 853 853 852 852 851 851 850 850 849 848 847 847 845 845 844 843 842 841 840 839 838 837 836 835 834 833 832 831 830 829 828 827 825 824 823 822 821 820 819 817 815 814 813 811 809 808 806 805 804 802 800 799 798 796 794 793 792 791 790 789
853 853 853 853 853 853 852 852 852 852 851 851 851 850 850 849 849 848 847 846 845 844 844 843 842 841 840 839 838 837 836 835 834 833 831 830 829 828 827 826 825 824 823 822 821 820 819 817 816 814 813 811 810 808 807 805 804 802 800 799 797 796 794 793 792 791 790 789 787
852 852 852 852 852 851 851 851 851 851 850 850 849 849 849 848 848 847 846 845 844 843 842 841 841 840 839 838 837 836 835 834 833 831 830 829 828 827 826 825 824 823 822 821 820 819 817 816 814 813 811 809 808 807 805 804 802 800 799 797 796 794 793 791 790 789 788 787 786
850 850 850 850 850 850 850 850 850 849 849 849 849 848 848 847 847 846 845 844 843 842 841 840 839 838 837 836 835 834 834 832 831 830 829 828 827 826 824 824 823 821 820 819 818 817 816 814 813 811 810 808 806 805 803 802 800 799 797 796 794 793 791 790 789 788 787 786 784
849 849 849 849 849 849 849 849 849 848 848 848 847 847 847 846 845 845 844 843 842 841 840 839 838 837 836 835 834 833 832 831 830 829 828 826 825 824 823 822 821 820 819 818 816 815 814 813 811 810 809 807 805 803 801 800 798 797 795 794 793 791 790 789 788 787 786 785 783
848 848 848 848 848 848 848 848 847 847 847 846 846 846 845 845 844 843 843 842 841 839 839 838 837 835 834 834 833 832 831 830 829 828 826 825 824 823 822 821 819 818 817 816 815 814 812 811 810 809 807 805 804 801 799 798 796 795 793 792 791 790 789 788 787 786 785 784 782
847 847 847 847 847 847 846 846 846 846 846 845 845 844 844 844 843 842 841 840 839 839 837 836 835 834 833 832 831 831 829 829 827 826 825 824 823 821 820 819 818 817 816 814 813 812 810 809 808 807 805 804 802 800 798 796 794 793 791 789 789 788 787 787 786 785 784 782 780
845 845 845 845 845 845 845 845 845 844 844 844 844 843 843 842 842 841 840 839 839 837 836 835 834 833 832 831 830 829 828 827 826 825 824 823 821 820 819 818 816 815 814 813 812 810 809 808 806 805 804 802 800 798 796 794 792 790 789 787 786 786 786 786 785 783 781 780 778
844 844 844 844 844 844 844 844 844 843 843 843 842 842 841 841 840 840 839 838 837 836 835 834 833 832 831 830 829 828 827 826 824 823 822 821 820 819 817 816 815 814 813 812 810 809 807 806 804 803 802 800 798 796 794 792 790 788 786 784 784 784 784 784 782 781 779 778 777
842 843 843 843 843 843 843 842 842 842 842 841 841 841 840 840 839 839 838 837 836 835 834 833 832 831 829 829 828 826 825 824 823 822 820 819 818 817 816 815 814 812 811 810 808 807 805 804 803 802 800 798 796 794 792 790 788 786 784 783 783 783 782 781 780 778 777 776 775
841 841 841 841 841 841 841 841 841 841 840 840 840 839 839 839 838 837 837 836 835 834 833 832 831 829 829 827 826 825 824 823 821 820 819 818 817 816 814 814 812 811 809 808 806 805 804 803 801 800 798 796 794 792 789 787 785 783 782 781 781 781 780 779 778 776 775 774 773
839 839 840 840 840 840 840 840 840 839 839 839 839 838 838 837 837 836 835 835 834 833 832 831 829 829 827 826 825 824 822 821 820 819 818 816 815 814 813 812 811 809 808 806 804 803 802 801 799 798 796 794 791 789 787 784 783 781 780 779 779 779 778 777 775 774 773 772 771
838 838 838 839 839 839 839 839 838 838 838 838 837 837 836 836 835 835 834 834 833 832 831 829 829 827 826 825 824 823 821 820 819 818 816 815 814 813 812 811 809 808 806 804 803 802 800 799 798 796 794 792 789 787 785 783 781 779 777 776 776 777 776 775 774 773 771 770 769
837 837 837 837 837 837 837 837 837 837 837 836 836 836 835 835 834 834 833 832 831 830 829 828 827 826 825 824 823 822 820 819 817 816 815 814 813 812 811 809 808 806 804 803 802 800 799 798 796 794 792 790 788 785 783 781 779 776 775 774 775 775 774 773 772 771 770 769 767
835 835 835 836 836 836 836 836 836 835 835 835 835 834 834 834 833 833 832 831 830 829 828 827 826 825 824 823 822 821 819 818 817 815 814 813 812 811 809 808 806 805 803 801 800 800 799 797 795 793 790 788 786 784 782 780 777 775 774 774 774 774 773 772 771 769 769 767 766
834 834 834 834 834 834 834 834 834 834 834 834 834 833 833 833 832 831 831 830 829 828 827 826 825 824 823 822 821 819 818 817 816 814 813 812 810 809 808 806 805 803 801 800 799 798 797 795 793 791 789 787 784 783 781 779 776 774 774 774 773 773 771 770 769 768 767 766 765
833 833 833 833 833 833 833 833 833 833 833 833 832 832 832 831 831 830 829 829 828 827 826 825 824 823 822 821 820 819 817 816 815 814 812 811 809 808 806 805 803 802 800 799 798 797 795 793 791 789 787 784 782 780 779 777 775 774 773 773 772 771 770 769 768 767 766 765 764
831 831 831 831 831 831 831 831 831 831 831 831 831 831 831 830 829 829 828 827 826 825 824 824 823 822 821 820 819 818 816 815 814 812 811 810 809 807 805 804 802 800 799 798 797 795 794 791 789 787 784 782 780 778 777 775 774 773 772 771 770 770 769 768 767 766 765 764 763
829 830 830 830 830 830 830 830 830 830 830 830 830 830 829 829 828 828 827 826 825 824 823 823 822 821 820 819 818 816 815 814 813 811 810 809 808 806 804 803 801 799 798 797 795 794 792 790 788 785 783 780 778 776 774 773 772 771 770 769 769 768 768 767 766 765 764 763 762
828 828 828 828 829 829 829 829 829 829 829 829 829 829 828 828 827 826 826 825 824 823 822 821 820 820 819 818 817 815 814 813 811 810 809 808 807 805 803 802 800 798 796 795 794 793 790 788 786 783 781 778 775 773 772 770 770 769 768 767 766 766 766 766 765 764 763 762 761
827 827 827 827 827 827 827 827 827 827 827 828 827 827 827 826 826 825 824 824 823 822 821 820 819 819 818 817 816 814 813 812 810 809 808 807 806 804 802 800 799 797 795 794 793 791 789 787 784 782 779 776 774 772 770 769 768 767 766 765 764 765 765 764 764 763 762 761 760
825 826 826 826 825 825 826 826 826 826 826 826 826 826 825 825 824 824 823 822 822 821 820 819 818 817 816 816 815 814 812 811 809 808 807 806 805 803 801 799 797 795 794 793 792 790 788 785 782 779 777 775 774 772 770 769 767 765 764 763 764 764 764 764 763 762 761 760 759
824 824 824 824 824 824 824 824 824 825 825 825 824 824 824 824 823 822 822 821 820 820 819 818 817 816 815 814 813 812 811 810 809 807 806 805 804 802 800 799 796 794 793 792 790 789 786 783 780 778 777 775 774 772 770 768 766 764 763 763 764 764 763 763 762 762 761 760 759
823 823 823 823 823 823 823 823 823 823 823 823 823 823 823 822 822 821 820 820 819 819 818 817 816 815 814 813 812 811 810 809 808 806 805 804 803 801 800 798 795 793 792 791 789 787 784 782 779 777 776 775 774 771 769 767 765 764 763 764 764 763 763 762 762 761 760 759 758
821 821 821 821 821 821 822 822 822 822 822 822 822 821 821 821 820 820 819 819 818 817 817 816 815 814 813 812 811 810 809 808 807 805 804 803 802 800 799 797 794 792 791 789 788 786 783 780 778 777 776 775 773 771 769 767 765 764 764 764 764 763 762 762 761 760 759 759 757
819 819 820 820 820 820 820 820 820 821 821 820 820 820 820 819 819 819 818 818 817 816 815 814 814 813 812 811 810 809 808 807 806 804 803 802 801 799 798 796 793 791 789 788 786 784 782 779 777 776 775 774 773 771 769 768 766 765 765 764 763 763 762 761 760 759 759 758 756
818 818 818 818 818 819 819 819 819 819 819 819 819 819 818 818 818 817 817 816 816 815 814 813 812 812 811 810 809 808 807 806 805 804 802 801 800 799 797 795 793 790 789 787 785 784 781 779 777 776 775 774 772 770 769 768 766 765 764 764 763 762 761 760 760 759 758 757 756
816 817 817 817 817 817 817 817 818 818 818 817 817 817 817 817 816 816 816 815 814 814 813 812 811 810 809 809 808 806 805 805 804 803 801 800 799 798 796 794 792 790 788 786 785 783 780 778 776 775 774 773 772 770 769 768 766 765 764 763 762 761 760 759 759 758 757 756 755
815 815 815 815 815 815 816 816 816 816 816 816 816 816 815 815 815 814 814 814 814 813 812 811 810 809 809 808 806 805 804 804 803 802 800 799 798 797 795 794 792 789 787 786 784 782 780 778 776 775 774 773 771 770 769 768 766 765 764 762 761 760 759 759 758 757 756 755 754
814 814 814 814 814 814 814 814 814 814 814 814 814 814 814 814 814 813 813 813 812 811 811 810 809 808 807 807 805 804 803 802 801 800 799 798 797 796 795 793 791 789 787 785 784 781 779 777 776 775 774 772 771 770 769 767 766 764 763 761 760 759 758 757 757 756 755 754 754
812 812 813 813 813 813 813 813 813 813 813 813 813 813 813 813 812 812 812 811 811 810 809 809 808 807 806 805 804 803 802 801 800 799 798 797 796 795 794 792 790 788 786 784 783 781 779 777 776 775 774 773 771 770 769 767 766 764 762 759 758 757 757 757 756 755 754 754 753
Wind_Speed
10 9 9 9 10 10 11 12 12 12 12 13 13 14 15 15 16 17 17 17 18 18 18 18 19 19 20 21 21 22 22 22 22 22 22 22 22 23 23 23 23 23 23 24 24 24 24 24 24 24 23 22 21 21 20 20 20 21 21 22 22 22 23 23 23 24 24 24 23
9 9 9 9 10 10 11 12 12 12 12 13 13 14 15 16 17 17 18 18 18 18 19 19 19 20 21 21 21 22 22 22 22 22 22 22 22 22 22 22 23 23 23 24 24 24 24 25 25 24 23 22 22 21 21 20 20 20 21 22 22 21 21 21 22 22 22 22 22
9 9 9 10 11 11 12 12 12 12 13 13 14 15 16 16 17 18 18 18 18 18 19 19 20 21 21 22 22 22 22 22 22 22 22 22 22 22 22 22 22 23 23 24 24 24 24 25 25 24 23 22 22 22 21 21 21 20 21 21 21 20 20 20 21 21 21 21 21
9 9 10 11 11 11 12 12 13 13 14 14 15 15 16 17 17 18 18 18 18 19 19 20 21 21 22 22 22 22 22 22 22 22 22 22 22 22 22 22 22 23 23 24 24 24 25 25 24 24 23 23 23 22 22 21 21 21 21 21 20 20 20 20 20 20 20 20 21
9 10 10 11 11 12 12 12 13 14 14 15 15 16 17 17 17 18 18 18 19 19 20 21 21 22 22 22 22 22 22 22 22 22 22 22 22 22 22 22 22 23 23 24 24 25 25 25 24 24 23 23 22 22 21 22 22 22 22 22 21 20 20 20 20 20 20 20 21
10 10 10 11 12 12 12 12 13 13 14 15 15 16 17 17 18 18 19 19 20 21 21 21 21 21 21 21 22 22 23 23 23 22 22 22 22 22 22 22 22 22 23 24 24 25 25 25 24 23 23 22 22 22 22 22 23 24 24 24 23 22 21 21 21 21 21 21 22
10 11 11 12 12 12 12 12 13 13 14 15 16 17 17 18 18 19 20 21 21 21 21 21 21 21 21 22 22 23 23 23 23 23 22 22 22 22 22 22 22 23 23 24 25 26 26 25 24 22 21 21 21 22 22 23 24 25 25 25 25 24 23 22 22 22 23 24 24
10 11 11 11 11 11 11 12 12 13 14 15 16 17 18 18 19 20 20 21 21 21 21 21 21 21 22 22 23 23 23 23 23 23 22 22 22 22 22 23 23 23 23 24 25 26 26 25 23 22 21 21 21 22 24 25 26 26 26 26 26 26 25 25 25 25 25 25 26
11 11 10 10 10 10 11 11 12 13 14 15 16 17 18 18 19 19 20 20 20 20 20 21 21 21 22 23 23 23 23 23 23 23 22 22 22 23 23 23 23 23 23 24 25 26 26 25 24 22 22 21 22 24 26 27 27 27 27 27 27 27 27 27 27 27 27 26 26
11 10 10 10 10 10 11 11 12 13 15 16 17 17 18 18 18 19 19 20 20 20 20 21 21 22 22 23 23 23 23 23 22 22 23 23 23 23 23 24 24 24 24 24 25 25 26 25 24 24 24 24 25 27 29 29 28 28 27 27 27 28 29 30 29 28 27 27 26
10 10 10 10 10 10 11 12 13 14 15 16 16 17 17 18 18 18 19 19 20 20 21 21 21 22 22 23 23 23 23 22 22 23 23 23 23 23 23 24 24 24 24 24 25 25 26 26 26 27 28 28 29 29 30 29 29 28 28 29 29 29 30 30 30 29 28 27 27
10 10 10 10 10 11 11 12 13 14 15 16 16 17 17 17 18 18 18 19 19 20 21 21 21 22 22 22 23 23 22 22 23 23 23 24 24 23 24 24 24 24 25 25 25 26 26 26 27 28 30 30 30 30 30 30 29 29 29 29 29 29 29 30 30 29 28 27 27
9 10 10 10 10 11 11 12 13 14 15 16 16 16 16 17 17 17 18 18 19 20 21 21 21 22 22 22 22 22 23 23 23 24 24 24 24 24 24 24 24 25 25 26 26 26 27 27 28 29 30 31 31 31 31 31 30 30 30 30 29 29 30 30 29 28 28 27 27
9 10 10 10 10 11 11 12 13 14 15 15 15 16 16 16 17 17 18 18 19 20 21 21 22 22 22 22 22 23 23 24 24 24 24 24 24 24 24 24 25 25 26 26 27 27 27 28 29 30 30 31 32 32 32 32 31 30 30 30 30 30 30 29 28 27 27 27 28
10 10 10 10 10 11 12 12 13 14 15 15 15 15 16 17 17 18 18 19 20 20 21 22 22 22 23 23 23 23 24 24 24 24 24 25 25 24 25 25 25 26 26 27 27 28 28 29 29 30 30 31 32 33 33 33 32 32 31 30 30 29 29 28 26 25 25 26 27
10 10 10 10 11 11 12 12 13 14 15 15 16 16 16 17 18 18 19 19 20 21 21 22 23 23 24 24 24 24 24 24 24 24 24 24 25 25 25 26 26 26 27 27 28 28 29 29 30 30 31 31 32 33 33 34 33 33 33 32 30 29 27 26 24 23 23 24 26
10 10 10 10 11 11 12 12 13 14 15 16 16 16 17 17 18 18 19 19 20 21 22 22 23 24 24 24 24 24 24 24 24 24 24 24 25 26 26 26 26 27 27 28 28 29 30 30 31 31 31 32 32 33 33 34 34 34 34 33 31 28 25 23 21 21 22 23 25
10 10 10 11 11 12 12 13 14 14 15 16 16 16 17 17 18 19 19 20 20 21 22 23 23 24 24 24 25 24 24 24 24 24 24 25 25 26 27 27 27 27 27 28 29 30 30 31 31 31 31 32 32 33 33 34 34 35 35 34 31 26 22 20 19 20 21 23 26
11 11 11 11 11 12 12 13 14 15 15 16 16 16 16 17 18 19 19 20 20 20 21 22 23 23 24 24 24 24 24 24 25 25 26 26 26 26 26 27 27 27 28 28 29 30 31 31 31 31 31 31 32 33 34 34 35 35 36 33 28 23 19 19 20 21 22 24 26
11 11 11 12 12 12 12 13 14 14 15 15 15 16 16 17 18 18 19 20 20 20 21 22 23 24 24 24 24 25 25 25 25 26 26 26 26 26 26 26 27 28 29 29 30 31 31 31 31 30 31 31 32 33 34 35 36 36 35 31 25 20 18 19 21 22 23 24 26
12 12 12 12 12 12 12 13 13 14 14 14 15 16 16 17 18 18 19 20 20 20 21 22 23 23 24 24 25 25 25 25 26 26 26 26 26 26 26 27 28 29 29 30 31 31 31 30 30 30 30 31 32 34 35 36 36 35 32 27 22 19 18 20 22 23 23 24 25
12 12 12 12 12 12 12 12 13 13 14 14 15 15 16 17 18 18 19 19 20 20 21 22 23 23 24 25 25 25 26 26 25 25 25 25 26 26 27 27 28 29 30 30 30 30 30 29 29 29 30 31 33 34 36 36 35 32 29 24 21 18 18 20 22 23 23 23 24
12 12 12 12 12 12 12 12 12 13 14 14 15 15 16 17 18 18 19 19 20 21 21 22 23 23 24 24 25 25 25 25 25 25 25 25 26 26 27 27 28 29 29 30 30 29 29 28 28 29 30 31 33 34 34 33 32 30 27 23 19 17 17 20 21 22 22 22 23
13 13 13 13 12 12 12 12 12 13 14 14 15 15 16 17 18 18 19 20 20 21 21 22 22 23 24 24 24 24 24 25 25 25 25 26 26 27 27 28 28 28 29 29 29 27 26 26 27 28 30 31 31 31 31 31 31 29 26 21 16 15 17 19 20 20 20 21 22
14 13 13 12 12 12 12 12 12 13 14 14 15 16 16 17 18 18 19 20 20 21 21 22 22 23 23 23 23 23 24 24 25 25 26 27 27 27 27 27 27 28 29 29 27 26 25 25 26 28 29 30 30 31 31 32 32 28 23 17 14 15 17 19 20 19 20 20 21
14 13 12 12 11 12 12 12 12 13 13 14 15 16 17 17 18 18 19 20 21 21 21 22 22 22 23 23 23 23 24 24 25 25 26 27 27 27 27 27 28 29 29 29 27 26 25 26 26 27 28 28 29 29 30 30 29 24 18 14 13 15 17 19 20 20 20 20 21
13 12 12 12 12 12 12 12 12 12 13 14 15 16 16 17 18 18 19 20 21 21 21 21 22 22 22 22 23 23 24 25 25 26 26 26 27 27 28 28 29 30 30 28 27 26 26 27 27 27 28 28 28 28 28 28 26 21 15 13 14 15 17 19 20 20 20 21 21
12 12 12 12 13 13 12 12 12 12 13 14 15 16 16 17 18 19 20 20 21 21 21 21 21 21 21 22 22 24 25 26 26 26 26 26 26 27 28 29 30 30 29 28 27 26 27 27 28 28 29 28 27 26 25 23 22 19 17 16 15 16 17 18 19 20 21 22 21
13 13 13 14 13 13 12 11 12 12 13 14 15 16 16 17 18 19 19 20 20 20 20 20 21 21 21 22 23 24 25 26 26 26 26 26 27 27 28 29 30 30 30 28 27 27 27 28 29 30 30 30 29 26 23 21 19 18 18 18 17 16 16 17 18 20 21 22 21
15 15 15 15 14 13 12 11 11 12 12 14 15 16 17 17 18 19 19 20 20 20 20 20 20 21 21 22 23 24 25 25 26 26 26 26 27 27 28 29 31 31 31 29 28 27 28 29 30 30 31 32 32 30 26 22 19 18 19 19 17 15 15 16 18 20 21 22 21
16 16 16 15 14 13 12 11 11 11 12 14 15 16 17 18 18 19 19 19 20 20 20 20 20 21 21 22 22 23 24 25 26 26 26 26 26 28 29 30 31 32 31 29 28 28 28 29 30 30 31 33 34 33 29 24 20 20 20 19 16 15 14 15 17 19 21 21 20
17 16 16 16 15 14 12 11 11 11 12 14 15 16 17 18 18 19 19 19 20 20 20 20 20 20 21 21 22 22 23 24 25 26 26 26 26 28 29 30 32 32 31 29 28 28 29 30 30 31 31 33 34 34 31 26 23 22 21 18 15 13 13 14 17 19 20 20 18
16 16 16 15 15 13 12 11 11 12 13 14 15 16 17 18 18 18 19 19 19 19 20 20 20 20 21 21 22 22 23 24 25 26 26 26 27 28 29 30 31 31 30 29 28 29 30 31 31 32 32 32 32 33 32 29 26 23 20 16 13 12 13 14 16 18 19 19 17
16 16 16 15 15 13 12 12 11 12 13 14 16 16 17 18 18 18 19 19 19 19 19 19 19 20 20 21 22 22 23 24 25 26 26 26 27 28 29 30 31 31 30 29 29 30 31 32 33 33 31 30 29 30 30 30 28 23 18 14 12 12 13 14 16 17 18 17 17
16 16 16 15 15 14 12 12 11 12 13 15 16 17 17 17 18 18 18 19 19 19 19 19 19 20 20 21 21 22 23 24 25 25 26 26 27 27 29 30 31 32 31 30 30 31 32 33 33 32 30 27 26 27 28 29 26 20 15 12 12 12 13 14 16 16 17 17 17
17 17 16 15 14 13 12 12 12 13 14 15 16 17 17 18 18 18 18 18 19 19 19 19 20 20 20 21 22 22 23 23 24 25 25 26 26 27 28 30 31 32 32 32 31 31 32 33 33 30 26 24 24 25 26 26 22 16 13 12 12 13 14 15 16 16 16 17 18
17 16 16 15 15 14 13 12 13 14 15 16 17 17 17 17 18 18 18 18 18 19 19 20 20 20 20 21 22 22 23 23 23 24 25 25 26 26 27 29 31 32 33 32 31 31 32 32 32 27 23 22 22 23 24 23 20 16 13 12 13 13 14 15 16 16 17 17 18
17 16 16 16 15 14 13 13 13 15 16 16 17 17 17 17 18 18 18 17 18 19 19 20 20 20 21 21 22 22 23 23 23 24 24 25 25 26 26 28 29 31 32 32 31 30 31 31 29 25 21 21 21 21 21 21 19 16 14 13 13 14 14 15 15 16 17 17 18
17 16 16 16 15 14 14 14 14 15 16 16 17 17 17 17 18 18 18 17 18 18 19 20 20 20 21 21 22 22 23 23 23 23 24 24 24 25 25 26 28 30 31 30 29 29 30 30 26 22 21 21 21 21 20 20 19 17 15 14 14 14 14 14 15 15 16 17 17
17 16 16 15 15 14 13 14 14 15 15 16 16 17 17 17 18 18 18 17 18 18 19 20 20 21 21 21 21 22 23 24 24 23 23 23 24 24 24 25 28 29 30 29 28 28 29 27 23 21 22 22 21 21 20 20 19 18 17 16 16 15 14 14 14 15 16 17 17
16 15 15 14 14 13 14 14 15 15 16 16 17 17 17 17 18 18 18 17 18 18 19 19 20 20 21 21 21 22 23 24 24 23 23 23 23 23 24 25 26 27 28 27 27 28 27 25 21 21 22 23 22 22 21 21 21 21 21 20 17 15 14 13 14 15 15 16 17
Wind_Direction
260 264 265 267 269 272 274 277 278 279 279 280 281 283 285 287 287 288 289 290 290 292 293 295 297 299 301 304 306 308 309 310 311 312 312 312 311 310 311 312 313 314 315 315 315 316 316 316 317 316 315 315 315 315 315 315 316 318 319 320 321 320 320 319 317 317 316 315 313
258 261 261 262 264 267 272 275 278 278 278 279 281 284 286 287 287 288 288 289 290 291 293 295 297 299 301 303 305 307 309 310 311 311 311 311 310 310 310 311 312 314 315 315 316 316 316 316 316 314 313 312 312 312 313 314 316 317 318 320 320 320 319 319 318 318 318 317 317
258 259 259 260 262 266 270 273 276 277 278 279 281 283 285 286 287 287 288 289 290 292 294 295 297 299 301 303 305 307 308 309 310 311 311 310 310 309 309 310 312 313 314 315 316 316 316 315 314 312 310 309 309 310 311 313 315 316 318 319 319 319 318 317 317 318 318 318 318
258 258 258 260 263 266 269 272 274 276 278 280 282 283 285 285 286 287 288 290 291 293 294 296 298 300 301 303 304 306 307 308 309 310 310 309 308 308 308 309 310 312 313 315 315 315 315 315 314 312 309 307 307 308 309 312 314 315 316 317 318 317 316 316 316 316 316 316 317
255 257 259 261 263 266 270 272 275 277 279 282 283 285 285 286 287 288 289 290 292 293 295 297 298 299 300 302 303 305 306 307 308 309 309 308 307 307 307 308 309 310 312 314 315 315 316 316 315 313 310 308 306 306 308 310 312 313 314 315 316 315 314 313 313 313 313 314 315
250 253 256 259 263 267 271 275 277 280 282 283 284 285 286 287 288 289 290 291 292 294 295 297 298 298 299 301 302 304 305 307 308 308 308 307 306 306 306 307 307 309 310 312 313 315 316 317 316 314 311 309 307 306 307 309 310 312 312 313 313 313 312 311 311 311 311 311 311
247 250 254 258 263 268 273 277 280 283 284 285 285 286 286 288 289 290 291 292 293 295 296 297 298 298 299 300 302 303 305 306 307 307 307 306 305 305 305 305 306 307 308 310 312 314 316 318 317 315 312 310 308 306 306 307 309 310 310 311 311 311 311 310 310 309 309 308 309
249 254 259 263 268 272 276 280 283 285 286 285 285 286 288 289 290 291 293 294 294 295 296 297 297 298 299 300 301 302 304 305 306 306 306 305 305 305 305 305 305 305 306 308 310 312 315 316 316 314 312 310 308 307 307 308 308 308 308 309 310 311 311 310 310 309 308 307 307
253 260 265 269 272 276 279 283 285 285 285 285 286 287 289 290 292 293 294 295 295 296 296 297 297 298 299 300 300 301 303 304 305 305 305 305 305 305 305 304 304 304 304 306 308 310 312 314 313 312 310 309 308 308 309 310 308 307 307 307 308 309 310 310 310 310 309 308 307
255 261 266 269 272 276 279 281 283 284 285 286 287 289 290 291 292 293 294 295 296 296 297 297 298 299 299 299 300 300 301 302 303 304 305 305 305 305 305 304 304 303 304 304 306 308 310 311 310 309 308 308 308 309 311 311 309 307 306 305 306 307 309 310 310 310 309 307 306
256 260 263 267 271 274 277 279 281 284 286 287 289 290 291 292 293 294 295 296 297 297 297 298 299 299 299 299 299 300 300 301 302 303 304 304 305 304 304 304 303 303 303 303 304 306 307 307 307 307 307 308 309 310 311 311 309 307 306 305 305 306 307 309 310 310 309 307 306
255 259 262 266 270 274 276 279 281 284 286 288 290 291 292 293 294 295 296 297 297 297 298 299 299 299 299 299 299 299 299 300 301 302 303 303 303 304 303 303 302 302 302 302 303 303 304 304 305 305 306 307 308 308 308 309 308 306 305 304 304 304 305 307 309 310 309 308 306
253 257 261 265 269 272 275 278 281 284 286 288 290 292 293 294 295 296 297 297 298 298 299 299 299 299 299 299 298 299 299 299 300 301 302 302 302 303 303 302 302 302 301 301 301 301 302 302 303 303 304 305 306 306 306 306 305 304 303 302 302 302 303 305 308 309 309 308 306
251 255 259 264 268 271 273 276 279 282 285 288 290 292 293 293 294 295 297 298 298 299 300 300 300 300 299 299 299 298 298 299 300 300 301 301 301 302 302 302 302 302 301 301 301 300 300 300 301 302 302 303 304 304 304 304 302 301 300 299 299 299 301 304 307 309 310 309 307
249 253 258 262 265 268 271 274 278 281 284 286 289 290 292 293 294 296 297 298 300 301 302 302 302 302 301 300 299 298 298 299 299 300 300 300 301 301 301 302 302 302 301 301 301 300 300 300 300 301 301 301 302 303 303 302 301 300 298 297 296 296 298 302 306 309 310 308 306
248 252 256 259 262 265 269 273 277 280 283 285 288 290 292 294 296 297 299 300 301 303 304 304 304 304 303 302 301 300 299 299 299 299 299 299 300 300 301 301 301 302 302 301 301 301 301 300 301 301 301 300 301 301 301 301 300 299 297 295 293 293 296 301 306 309 310 307 303
247 251 255 258 261 265 269 272 276 279 282 286 289 292 294 295 297 299 300 301 303 304 305 305 306 305 305 304 303 302 300 299 299 299 299 299 300 300 301 301 301 301 302 302 301 301 301 301 301 301 301 300 300 300 300 300 299 298 297 294 290 290 293 300 306 308 307 304 300
244 250 254 258 261 265 269 273 276 280 283 287 291 293 296 297 298 300 301 302 304 304 305 306 307 307 307 306 305 304 302 300 299 298 298 298 299 300 301 301 301 302 302 302 301 301 301 301 302 302 302 301 300 299 299 298 298 297 295 291 286 286 291 300 304 304 301 299 298
241 246 250 255 259 264 268 273 277 281 285 289 292 295 297 298 299 300 301 302 304 305 306 307 308 308 308 308 307 306 304 301 300 299 299 299 299 300 301 301 302 302 302 302 302 301 301 301 302 302 302 301 300 299 298 297 297 295 292 286 282 283 291 300 301 300 298 298 297
239 243 248 252 258 263 268 273 278 283 287 291 293 295 297 298 300 300 300 302 304 306 306 307 308 309 309 310 309 308 306 305 303 302 301 301 301 301 301 301 302 302 302 302 302 302 302 302 302 302 301 300 299 297 297 296 294 292 287 281 279 283 293 299 299 297 297 297 297
239 244 248 253 258 263 268 274 279 284 288 291 293 295 297 299 299 299 300 302 304 305 306 307 308 308 309 310 310 310 309 309 307 305 304 304 303 302 302 302 302 303 303 303 303 303 303 303 303 302 301 300 298 296 295 294 292 289 284 279 279 285 294 298 296 295 295 296 297
241 246 250 255 259 264 269 275 281 285 288 290 293 295 297 298 299 300 301 302 304 305 306 307 308 309 310 310 310 310 310 310 308 307 306 305 304 303 303 303 303 303 304 304 304 304 303 303 303 302 300 298 297 296 294 293 290 287 283 278 280 286 294 296 294 292 293 295 297
241 246 250 254 259 264 270 276 281 285 287 290 293 295 297 298 299 300 301 301 303 304 306 308 309 310 311 311 311 310 310 309 308 308 307 306 306 305 305 305 305 304 304 304 304 304 304 304 303 301 299 297 296 296 295 295 293 287 280 275 277 285 292 293 292 292 293 297 299
240 244 248 253 258 264 271 276 281 284 287 290 293 295 296 297 298 299 299 300 302 304 306 308 309 310 311 311 310 309 309 308 308 308 308 308 307 307 307 307 306 305 304 304 304 304 304 303 302 301 301 300 299 299 300 301 298 290 279 270 274 283 290 292 293 295 297 300 302
239 243 247 252 258 264 270 275 279 283 287 290 293 294 295 295 296 297 298 299 301 304 306 308 309 309 309 309 308 308 308 308 308 308 308 309 309 309 309 308 307 306 305 305 305 305 304 304 304 304 304 304 304 304 305 306 303 294 281 270 273 282 289 293 296 299 302 305 305
240 243 247 252 257 263 268 273 277 282 286 289 291 292 293 294 295 295 296 298 301 304 306 307 308 309 309 308 308 308 308 308 308 308 308 309 310 311 310 309 308 307 306 306 306 306 306 306 306 306 305 305 305 306 308 310 308 301 286 274 277 284 289 293 297 301 305 307 308
240 243 246 251 255 260 265 270 276 281 284 287 288 289 291 292 293 294 296 298 300 303 306 307 307 308 308 307 307 307 308 308 308 309 309 310 311 311 311 310 309 308 308 307 307 307 307 307 307 306 306 306 306 307 309 312 312 306 293 282 282 287 292 295 298 301 304 307 308
237 240 243 247 252 257 263 269 274 278 281 284 286 287 289 290 292 293 296 298 301 303 304 305 306 306 306 306 306 307 308 308 309 310 310 311 311 311 311 310 310 310 309 308 307 309 309 308 308 308 307 306 306 306 308 310 310 305 296 287 287 291 295 297 299 301 303 305 307
232 235 239 244 249 256 262 267 271 275 279 281 284 285 287 289 291 293 296 299 301 302 303 304 305 305 305 305 306 307 308 309 309 310 310 311 311 311 311 311 311 311 311 310 309 310 311 310 310 310 310 309 308 307 305 305 303 300 295 289 288 292 297 298 300 301 303 305 306
231 235 239 244 250 256 261 265 269 273 277 280 282 284 286 288 290 293 296 298 300 301 302 303 304 304 304 305 306 307 308 309 309 310 310 310 311 311 311 312 312 313 313 312 311 312 312 313 314 315 314 313 312 311 309 304 299 295 291 286 287 292 298 299 300 302 304 306 307
234 238 242 247 252 256 261 265 269 273 276 278 280 283 284 287 289 292 295 297 298 300 301 302 302 303 303 305 306 307 307 308 309 310 310 310 311 311 312 313 313 314 314 313 312 312 314 315 315 316 316 317 320 322 320 313 301 291 286 283 286 294 299 300 302 304 306 308 309
237 241 245 249 253 257 261 265 269 272 275 277 279 281 283 286 289 292 294 296 298 299 300 301 301 302 303 304 305 306 307 308 309 309 310 311 311 311 312 313 313 313 313 312 313 313 314 314 314 315 318 324 330 334 333 324 309 295 286 282 289 297 301 301 302 304 308 310 313
238 241 244 248 252 257 261 265 269 272 274 276 278 280 282 285 288 291 293 295 297 298 299 300 301 302 303 304 305 306 307 307 308 309 310 311 311 312 312 312 313 313 313 312 313 314 313 313 313 316 322 331 340 344 343 335 320 303 290 286 295 302 302 300 301 304 309 313 318
238 241 244 248 252 257 261 265 268 271 274 275 277 279 281 284 287 290 293 295 296 298 298 299 300 301 302 303 304 305 306 307 308 309 310 311 312 312 311 311 312 313 313 312 313 314 313 313 313 317 325 336 345 348 346 340 328 313 299 297 303 304 301 299 301 306 312 317 323
237 240 243 247 252 256 260 264 267 270 272 273 275 277 280 283 286 289 292 294 296 297 297 298 299 300 301 302 303 304 305 306 308 309 310 311 311 311 311 311 312 313 313 312 313 313 313 313 314 319 328 341 349 351 349 345 336 323 311 309 308 304 301 301 305 310 316 322 327
237 240 243 247 251 254 258 261 264 266 269 270 273 276 279 283 286 289 291 294 295 296 296 297 299 300 301 302 303 305 305 306 307 309 310 310 310 310 310 310 312 313 313 311 312 313 314 315 317 323 334 348 354 355 355 354 348 338 326 318 310 306 305 307 311 316 321 325 328
237 240 243 246 249 252 255 257 260 262 265 268 271 275 279 283 286 289 291 293 294 295 296 298 299 300 302 303 304 305 306 307 308 309 309 310 310 310 310 310 311 312 312 312 312 313 315 317 320 329 343 357 359 359 0 1 359 352 339 325 315 311 311 313 317 321 324 326 328
235 239 242 246 249 250 252 254 256 259 263 267 271 276 280 283 286 288 290 292 293 295 296 298 299 301 302 304 305 306 307 309 309 309 310 310 311 311 310 310 310 311 313 313 314 315 317 320 325 335 351 2 2 1 1 1 360 354 344 330 321 317 317 318 321 324 326 327 327
234 237 241 245 247 249 250 252 255 259 263 268 273 277 281 283 285 287 289 291 292 294 296 298 300 301 304 305 306 307 308 309 310 310 310 311 312 312 311 310 310 312 314 315 316 318 320 323 329 343 358 4 3 0 357 355 352 346 337 327 320 317 317 321 324 326 327 327 327
233 236 239 243 245 248 250 253 256 260 265 269 273 277 279 282 284 286 288 290 291 293 295 297 299 302 304 306 306 307 308 309 311 312 312 313 314 314 313 312 313 315 316 317 319 321 323 327 337 352 2 2 2 359 355 349 343 335 325 316 312 312 316 321 326 328 330 329 329
231 234 237 240 243 246 249 253 256 261 265 268 272 276 280 283 285 286 288 289 291 293 295 298 300 302 304 306 306 307 308 310 312 313 315 315 316 316 316 316 317 318 320 321 322 324 326 333 347 359 1 0 0 359 355 349 340 330 321 313 310 311 317 324 328 331 333 332 331